Погода в Сусумане

Погода в Сусумане : погода сейчас, прогноз погоды и архив. Всё, что Вы хотите узнать о погоде в Сусумане!

Поиск расширенной информации на нашем сайте:

Другие новости

Новости СМИ2

Главная страница сайта

Новости сайта

02.10.2013

Напоминаем, что на нашем новом сайте вы можете получить высокодетализированные прогнозы погоды по пунктам России, СНГ и мира (включающие важные для авиации метеовеличины, такие как направление и скорость ветра, видимость, явления погоды, количество и форма облачности, нижняя и верхняя граница облачности), а также ознакомиться с разнообразными материалами по авиационной метеорологии и подборкой полезных ссылок на эту тему.

Сайт Метеоцентр.Азия посвящён разработке технологий оптимизации авиаметеорологического обслуживания, включая проектирование и перспективное создание нескольких автоматизированных авиаметеорологических систем:
- система выпуска высокодетальных прогностических карт явлений погоды для нижнего воздушного пространства по России и ближнему зарубежью;
- система верификации прогнозов TAF (выпускаемых синоптиками официальных АМСГ РФ и ближнего зарубежья) и AUTOTAF (выпускаемых сайтом Метеоцентр.Азия) - выявление ошибок, онлайн-сопоставление с фактической погодой METAR, автоматическое внесение коррективов в прогнозы при резком отклонении фактической погоды от прогноза, подсчёт оправдываемости прогнозов по элементам и в целом;
- система обработки, анализа и отображения авиаметеорологической информации для применения провайдерами метеорологической информации.

Рекомендуем: Top100 бизнес и финансы базы данных предприятий россии.

Погода в Сусумане - сегодня

Время (UTC), дата Ветер
(°,м/с) 
Видим.   Явления Облачность Т
(°С)
Тd
(°С)
f(%) Тe
(°С)
Pmin
(гПа)
dP
(гПа)
Po
(мм)
O2
(г/м3)
Тmin Tmax R s Состояние
почвы
06 20.03.17 230 (ЮЗ) 20000 м    9/0 верхняя 
[Ci fib]
-12 -21.5 45 -12  1021  -1.1  703  298           
09 20.03.17 160 (Ю) 20000 м    9/0 верхняя 
[Ci fib]
-15.1 -24.4 45 -15  1021.6  -0.1  703  301    -11.8       
12 20.03.17 030 (СВ) 20000 м    8/0 верхняя 
[Ci fib]
-18.9 -23.8 65 -19  1023.3  0.3  703  306           
15 20.03.17 060 (СВ) 20000 м    4/0 верхняя 
[Ci fib]
-21.1 -24.4 75 -24  1024.3  0.2  703  309           
18 20.03.17 060 (СВ) 20000 м    4/0 верхняя 
[Ci fib]
-21.5 -24.8 75 -24  1024.6  0.2  704  309           
21 20.03.17 060 (СВ) 20000 м    10/1 1000 м средняя 
[Sc|Ac As]
-22.1 -24.4 82 -25  1025.8  0.9  704  310  -22.2      22  неравномерный
сухой снег
100% 
00 21.03.17 020 (С) 20000 м    10/0 средняя 
[Ac As]
-16.8 -24.3 52 -17  1024.6  0.6  705  304           
03 21.03.17 тихо ()   20000 м    9/0 средняя, верхняя 
[Ac trans|Ci fib]
-10.5 -16.8 60 -11  1022  -0.4  704  296           
06 21.03.17 080 (В) 20000 м    3/0 средняя 
[Ac trans]
-6.5 -19.5 35 -8  1020.6  -0.2  704  292           
09 21.03.17 030 (СВ) 20000 м    3/3 1000 м 
[Sc]
-13.1 -20.2 55 -13  1023.7  0.8  705  300    -6.2       
12 21.03.17 080 (В) 20000 м    1/1 1000 м 
[Sc]
-22.1 -25.5 74 -22  1027.7  0.8  706  311           
15 21.03.17 060 (СВ) 20000 м    ясно 
-23.3 -25.8 80 -26  1028.6  0.4  706  313           
18 21.03.17 220 (ЮЗ) 20000 м    4/0 верхняя 
[Ci fib]
-27.3 -30.5 74 -28  1029.9  0.1  706  318           
21 21.03.17 030 (СВ) 20000 м    9/0 средняя, верхняя 
[Ac As|Cs]
-21.4 -24.4 77 -22  1027.6  -0.2  706  310  -27.9      22  неравномерный
сухой снег
100% 
00 22.03.17 020 (С) 20000 м    9/4 1000 м средняя 
[Sc|Ac As]
-15.5 -22.3 56 -16  1025.3  -0.2  705  303           
03 22.03.17 210 (ЮЗ) 20000 м    9/4 1000 м средняя, верхняя 
[Sc|Ac trans|Ci fib]
-8.4 -19.7 40 -8  1021.9  -1  705  294           
06 22.03.17 260 (З) 20000 м    6/3 1000 м средняя, верхняя 
[Sc|Ac trans|Ci fib]
-6.2 -18.7 36 -6  1019.9  -1.1  704  292           
09 22.03.17 130 (ЮВ) 20000 м    3/0 средняя 
[Ac trans]
-12.2 -19.3 55 -14  1022.2  0.3  704  298    -5.3       
12 22.03.17 170 (Ю) 20000 м    3/0 верхняя 
[Ci fib]
-20.7 -23.5 78 -24  1025.9  0.7  705  309           
15 22.03.17 050 (СВ) 20000 м    3/0 верхняя 
[Ci fib]
-25.2 -27.6 80 -26  1028.1  0.5  705  315           
18 22.03.17 010 (С) 20000 м    3/0 верхняя 
[Ci fib]
-27.2 -29.8 78 -28  1029.1  0.3  705  317           
21 22.03.17 050 (СВ) 20000 м    4/0 средняя, верхняя 
[Ac trans|Ci fib]
-27.7 -30.8 75 -31  1030.5  1.1  706  318  -29.1      22  неравномерный
сухой снег
100% 
00 23.03.17 030 (СВ) 20000 м    9/3 1000 м средняя, верхняя 
[Sc|Ac trans|Ci fib]
-17.6 -23.8 58 -18  1027.4  0.5  706  306           
03 23.03.17 250 (З) 20000 м    9/3 1000 м средняя, верхняя 
[Sc|Ac trans|Ci fib]
-9.3 -19.8 42 -9  1024.1  -0.5  706  296           
06 23.03.17 250 (З) 20000 м    9/6 1230 м средняя 
[Sc|Ac trans]
-6.8 -17.2 43 -6  1022.4  -0.8  705  293           
Время (UTC), дата Ветер
(°,м/с) 
Видим.   Явления Облачность Т
(°С)
Тd
(°С)
f(%) Тe
(°С)
Pmin
(гПа)
dP
(гПа)
Po
(мм)
O2
(г/м3)
Тmin Tmax R s Состояние
почвы

Для получения пояснительной информации подведите курсор к названию столбца.

ПОГОДА в Сусумане - архив

Всё, что Вы хотите узнать о погоде в Сусумане - удобно и подробно!

Выберите нужную дату (начиная с 1 января 2015* года) и нажмите кнопку "Найти".
Будут отображены архивные сводки погоды по пункту Сусуман, начиная с указанной даты.


Отображать данные в формате CSV (для использования в таблицах Excel)


Внимание! Наш архив погоды предназначен исключительно для личного некоммерческого использования в познавательных целях. Если Вам необходимы официальные справки о состоянии погоды (для производственных, юридических, коммерческих и т.п. целей), обращайтесь в органы Росгидромета.

*Примечание: данная дата относится к архиву по метеостанциям СССР (Россия, СНГ, Балтия).
Архив по метеостанциям Зарубежной Европы и Азии (кроме Китая) хранится 10 дней, по другим регионам земного шара (Китай, Африка, Америка, Австралия, Океания) - 1 день.

Сусуман - район местоположения метеостанции


Название, широта, долгота, высота метеостанции:
Сусуман 62.8°ш. 148.2°д. 655 м над ур. моря [Российская Федерация]

Дополнительная информация

В oтличие oт бoльшинства пoгoдных сайтoв мы публикуем пoдрoбную метеoинфoрмацию в детальнoм прoфессиoнальнoм фoрмате.

Характеристики температуры и влажнoсти вoздуха измеряются на высoте 2 м в тени вдали oт зданий и деревьев.
Скoрoсть ветра измеряется на высoте 10 м (на урoвне рoста челoвека скoрoсть ветра ниже в 1.5-2 раза). Если метеoстанция нахoдится в гoрoде или в лесу, тo скoрoсть ветра занижена на 2-4 м/с пo сравнению с oткрытым местoм. Скoрoсть ветра над акватoриями крупных рек и oзёр, а также на вершинах хoлмoв на 2-5 м/с выше, чем в oбычных услoвиях.
Атмoсфернoе давление в разных тoчках местнoсти мoжет значительнo oтличаться oт давления на метеoстанции, в зависимoсти oт услoвий рельефа (при пoдъёме на 10 м давление пoнижается примернo на 1 мм рт.ст.).